TimeGMT,TemperatureF,Dew PointF,Humidity,Sea Level PressureIn,VisibilityMPH,Wind Direction,Wind SpeedMPH,Gust SpeedMPH,PrecipitationIn,Events,Conditions,WindDirDegrees,DateUTC
12:00 AM,37.4,32.0,81,30.30,6.2,East,1.2,-,N/A,,Overcast,90,2013-03-03 00:00:00
12:30 AM,37.4,33.8,87,30.27,6.2,ESE,3.5,-,N/A,,Mostly Cloudy,110,2013-03-03 00:30:00
1:00 AM,39.2,33.8,81,30.27,6.2,SE,1.2,-,N/A,,Overcast,140,2013-03-03 01:00:00
1:30 AM,39.2,33.8,81,30.27,6.2,ESE,3.5,-,N/A,,Mostly Cloudy,110,2013-03-03 01:30:00
2:00 AM,37.4,33.8,87,30.27,6.2,East,4.6,-,N/A,,Overcast,80,2013-03-03 02:00:00
2:30 AM,37.4,32.0,81,30.27,6.2,ENE,4.6,-,N/A,,Overcast,70,2013-03-03 02:30:00
3:00 AM,39.2,33.8,81,30.24,6.2,East,4.6,-,N/A,,Overcast,100,2013-03-03 03:00:00
3:30 AM,37.4,33.8,87,30.24,6.2,ESE,3.5,-,N/A,,Scattered Clouds,110,2013-03-03 03:30:00
4:00 AM,35.6,32.0,87,30.24,6.2,East,5.8,-,N/A,,Scattered Clouds,100,2013-03-03 04:00:00
4:30 AM,35.6,33.8,93,30.21,6.2,ESE,5.8,-,N/A,,Mostly Cloudy,110,2013-03-03 04:30:00
5:00 AM,37.4,33.8,87,30.21,6.2,ENE,3.5,-,N/A,,Mostly Cloudy,60,2013-03-03 05:00:00
5:30 AM,35.6,32.0,87,30.21,6.2,NE,1.2,-,N/A,,Mostly Cloudy,50,2013-03-03 05:30:00
6:00 AM,35,31,81,30.22,9,East,2.2,,,,Mist,90,2013-03-03 06:00:00
6:00 AM,35.6,32.0,87,30.21,6.2,East,2.3,-,N/A,,Mostly Cloudy,90,2013-03-03 06:00:00
6:30 AM,33.8,32.0,93,30.21,6.2,NNE,1.2,-,N/A,,Mostly Cloudy,20,2013-03-03 06:30:00
7:00 AM,35.6,32.0,87,30.21,6.2,NNE,4.6,-,N/A,,Mostly Cloudy,30,2013-03-03 07:00:00
7:30 AM,35.6,32.0,87,30.21,5.0,NE,3.5,-,N/A,,Mostly Cloudy,40,2013-03-03 07:30:00
8:00 AM,35.6,32.0,87,30.21,5.0,Calm,Calm,-,N/A,,Mostly Cloudy,0,2013-03-03 08:00:00
8:30 AM,37.4,33.8,87,30.18,5.0,East,6.9,-,N/A,,Mostly Cloudy,80,2013-03-03 08:30:00
9:00 AM,37.4,33.8,87,30.18,5.0,ENE,5.8,-,N/A,,Mostly Cloudy,60,2013-03-03 09:00:00
9:30 AM,39.2,35.6,87,30.18,6.2,East,6.9,-,N/A,,Mostly Cloudy,90,2013-03-03 09:30:00
10:00 AM,41.0,35.6,81,30.18,6.2,East,5.8,-,N/A,,Mostly Cloudy,80,2013-03-03 10:00:00
10:30 AM,41.0,35.6,81,30.18,6.2,East,10.4,-,N/A,,Mostly Cloudy,100,2013-03-03 10:30:00
11:00 AM,41.0,35.6,81,30.15,6.2,ESE,9.2,-,N/A,,Mostly Cloudy,110,2013-03-03 11:00:00
11:30 AM,42.8,37.4,81,30.15,6.2,ESE,10.4,-,N/A,,Mostly Cloudy,110,2013-03-03 11:30:00
12:00 PM,43,36,67,30.16,6,ESE,11.2,,,,Mist,110,2013-03-03 12:00:00
12:00 PM,42.8,35.6,76,30.15,6.2,ESE,10.4,-,N/A,,Mostly Cloudy,110,2013-03-03 12:00:00
12:30 PM,44.6,33.8,66,30.12,6.2,ESE,11.5,-,N/A,,Mostly Cloudy,110,2013-03-03 12:30:00
1:00 PM,44.6,33.8,66,30.12,4.3,East,11.5,-,N/A,,Mostly Cloudy,100,2013-03-03 13:00:00
1:30 PM,44.6,33.8,66,30.12,4.3,ESE,11.5,-,N/A,,Mostly Cloudy,110,2013-03-03 13:30:00
2:00 PM,44.6,33.8,66,30.09,4.3,ESE,11.5,-,N/A,,Mostly Cloudy,120,2013-03-03 14:00:00
2:30 PM,44.6,33.8,66,30.09,4.3,ESE,9.2,-,N/A,,Mostly Cloudy,110,2013-03-03 14:30:00
3:00 PM,46.4,33.8,62,30.06,6.2,East,10.4,-,N/A,,Mostly Cloudy,100,2013-03-03 15:00:00
3:30 PM,46.4,33.8,62,30.06,6.2,ESE,10.4,-,N/A,,Mostly Cloudy,110,2013-03-03 15:30:00
4:00 PM,44.6,33.8,66,30.06,5.0,SSE,11.5,-,N/A,,Mostly Cloudy,160,2013-03-03 16:00:00
4:30 PM,44.6,33.8,66,30.06,5.0,SE,11.5,-,N/A,,Overcast,140,2013-03-03 16:30:00
5:00 PM,42.8,33.8,70,30.06,5.0,SSE,10.4,-,N/A,,Overcast,150,2013-03-03 17:00:00
5:30 PM,42.8,33.8,70,30.04,5.0,SSE,13.8,-,N/A,,Mostly Cloudy,150,2013-03-03 17:30:00
6:00 PM,42,32,58,30.06,5,SSE,11.2,,,,Haze,150,2013-03-03 18:00:00
6:00 PM,41.0,32.0,70,30.04,5.0,SSE,10.4,-,N/A,,Mostly Cloudy,150,2013-03-03 18:00:00
6:30 PM,41.0,32.0,70,30.06,5.0,SSE,13.8,-,N/A,,Mostly Cloudy,150,2013-03-03 18:30:00
7:00 PM,41.0,32.0,70,30.06,5.0,SSE,11.5,-,N/A,,Mostly Cloudy,150,2013-03-03 19:00:00
7:30 PM,41.0,33.8,76,30.06,5.0,SE,10.4,-,N/A,,Mostly Cloudy,140,2013-03-03 19:30:00
8:00 PM,41.0,32.0,70,30.04,6.2,SE,13.8,-,N/A,,Mostly Cloudy,140,2013-03-03 20:00:00
8:30 PM,39.2,32.0,75,30.04,6.2,SE,11.5,-,N/A,,Mostly Cloudy,140,2013-03-03 20:30:00
9:00 PM,39.2,32.0,75,30.04,6.2,SE,11.5,-,N/A,,Overcast,130,2013-03-03 21:00:00
9:30 PM,39.2,32.0,75,30.04,6.2,SE,9.2,-,N/A,,Mostly Cloudy,130,2013-03-03 21:30:00
10:00 PM,39.2,32.0,75,30.04,6.2,SE,6.9,-,N/A,,Mostly Cloudy,130,2013-03-03 22:00:00
10:30 PM,39.2,32.0,75,30.04,6.2,ESE,6.9,-,N/A,,Mostly Cloudy,120,2013-03-03 22:30:00
11:00 PM,39.2,32.0,75,30.01,6.2,East,5.8,-,N/A,,Mostly Cloudy,80,2013-03-03 23:00:00
11:30 PM,39.2,32.0,75,30.01,6.2,East,4.6,-,N/A,,Mostly Cloudy,80,2013-03-03 23:30:00